| time (UTC) | temp F | wind direction | speed knots | gust knots | rain 1hr in | rain 24hr in | rain mn in | humidity % | barometer mb |
| 20260509135006 | 49 | 122 | 0.9 | 3.5 | 0.00 | 0.02 | 0.00 | 79 | 1008.8 |
| 20260509134506 | 49 | 133 | 0.9 | 5.2 | 0.00 | 0.02 | 0.00 | 78 | 1008.7 |
| 20260509134005 | 48 | 98 | 0.9 | 5.2 | 0.00 | 0.02 | 0.00 | 79 | 1008.8 |
| 20260509133505 | 48 | 61 | 0.9 | 2.6 | 0.00 | 0.02 | 0.00 | 78 | 1008.8 |
| 20260509133003 | 48 | 85 | 0.9 | 2.6 | 0.00 | 0.02 | 0.00 | 79 | 1008.9 |
| 20260509132504 | 48 | 96 | 0.9 | 3.5 | 0.00 | 0.02 | 0.00 | 79 | 1008.9 |
| 20260509131505 | 47 | 95 | 0.9 | 3.5 | 0.00 | 0.02 | 0.00 | 81 | 1009.0 |
| 20260509131005 | 47 | 81 | 0.9 | 3.5 | 0.00 | 0.02 | 0.00 | 79 | 1009.0 |
| 20260509130505 | 46 | 63 | 0.9 | 1.7 | 0.00 | 0.02 | 0.00 | 79 | 1009.2 |
| 20260509130005 | 46 | 55 | 0.9 | 3.5 | 0.00 | 0.02 | 0.00 | 79 | 1009.1 |
| 20260509125006 | 46 | 94 | 0.0 | 0.0 | 0.00 | 0.02 | 0.00 | 80 | 1009.1 |
| 20260509124506 | 45 | 58 | 0.0 | 0.9 | 0.00 | 0.02 | 0.00 | 79 | 1009.0 |
| 20260509124005 | 45 | 60 | 0.0 | 0.9 | 0.00 | 0.02 | 0.00 | 79 | 1009.0 |
| 20260509123505 | 45 | 77 | 0.0 | 0.9 | 0.00 | 0.02 | 0.00 | 79 | 1008.9 |
| 20260509123005 | 45 | 101 | 0.0 | 0.9 | 0.00 | 0.02 | 0.00 | 80 | 1009.0 |
| 20260509122005 | 44 | 71 | 0.0 | 0.0 | 0.00 | 0.02 | 0.00 | 80 | 1009.0 |
| 20260509121505 | 44 | 30 | 0.0 | 0.0 | 0.00 | 0.02 | 0.00 | 81 | 1009.1 |
| 20260509121005 | 44 | 9 | 0.0 | 0.0 | 0.00 | 0.02 | 0.00 | 80 | 1009.2 |
| 20260509120006 | 43 | 102 | 0.0 | 0.0 | 0.00 | 0.02 | 0.00 | 81 | 1009.1 |
| 20260509115505 | 43 | 102 | 0.0 | 0.0 | 0.00 | 0.02 | 0.00 | 80 | 1009.1 |
| 20260509115006 | 43 | 109 | 0.0 | 0.0 | 0.00 | 0.02 | 0.00 | 80 | 1009.2 |
| 20260509114504 | 43 | 109 | 0.0 | 0.0 | 0.00 | 0.02 | 0.00 | 80 | 1009.3 |
| 20260509114004 | 42 | 115 | 0.0 | 0.0 | 0.00 | 0.02 | 0.00 | 80 | 1009.3 |
| 20260509113504 | 42 | 117 | 0.0 | 1.7 | 0.00 | 0.02 | 0.00 | 80 | 1009.2 |
| 20260509113005 | 42 | 111 | 0.0 | 2.6 | 0.00 | 0.02 | 0.00 | 80 | 1009.2 |
| 20260509112005 | 42 | 109 | 0.0 | 1.7 | 0.00 | 0.02 | 0.00 | 81 | 1008.9 |
| 20260509111505 | 41 | 105 | 0.0 | 0.9 | 0.00 | 0.02 | 0.00 | 82 | 1008.9 |
| 20260509111005 | 41 | 105 | 0.0 | 0.9 | 0.00 | 0.02 | 0.00 | 82 | 1009.0 |
| 20260509105505 | 41 | 118 | 0.0 | 1.7 | 0.00 | 0.02 | 0.00 | 83 | 1009.2 |
| 20260509105005 | 40 | 118 | 0.0 | 1.7 | 0.00 | 0.02 | 0.00 | 83 | 1009.2 |
| 20260509103505 | 40 | 94 | 0.0 | 0.0 | 0.00 | 0.02 | 0.00 | 83 | 1009.2 |
| 20260509102505 | 40 | 94 | 0.0 | 1.7 | 0.00 | 0.02 | 0.00 | 83 | 1009.2 |
| 20260509102006 | 40 | 83 | 0.0 | 1.7 | 0.00 | 0.02 | 0.00 | 83 | 1009.2 |
| 20260509101505 | 40 | 61 | 0.0 | 1.7 | 0.00 | 0.02 | 0.00 | 84 | 1009.1 |
| 20260509101005 | 39 | 74 | 0.0 | 1.7 | 0.00 | 0.02 | 0.00 | 84 | 1009.1 |
| 20260509100505 | 39 | 355 | 0.0 | 0.9 | 0.00 | 0.02 | 0.00 | 84 | 1009.1 |
| 20260509100005 | 39 | 355 | 0.0 | 0.9 | 0.00 | 0.02 | 0.00 | 84 | 1009.0 |
| 20260509095504 | 39 | 355 | 0.0 | 0.9 | 0.00 | 0.02 | 0.00 | 84 | 1008.9 |
| 20260509095005 | 39 | 355 | 0.0 | 0.9 | 0.00 | 0.02 | 0.00 | 85 | 1008.9 |
| 20260509094504 | 39 | 355 | 0.0 | 0.9 | 0.00 | 0.02 | 0.00 | 85 | 1008.8 |
| 20260509094005 | 39 | 5 | 0.0 | 0.9 | 0.00 | 0.02 | 0.00 | 85 | 1008.8 |
| 20260509093505 | 39 | 9 | 0.0 | 0.9 | 0.00 | 0.02 | 0.00 | 85 | 1008.8 |
| 20260509092504 | 38 | 39 | 0.0 | 0.9 | 0.00 | 0.02 | 0.00 | 86 | 1008.8 |
| 20260509092004 | 38 | 40 | 0.0 | 0.9 | 0.00 | 0.02 | 0.00 | 85 | 1008.8 |
| 20260509091505 | 38 | 39 | 0.0 | 0.0 | 0.00 | 0.02 | 0.00 | 85 | 1009.0 |
| 20260509091004 | 38 | 39 | 0.0 | 0.0 | 0.00 | 0.02 | 0.00 | 85 | 1009.0 |
| 20260509090505 | 38 | 39 | 0.0 | 0.0 | 0.00 | 0.02 | 0.00 | 85 | 1008.9 |
| 20260509090006 | 39 | 39 | 0.0 | 0.0 | 0.00 | 0.02 | 0.00 | 85 | 1009.0 |
| 20260509085504 | 39 | 39 | 0.0 | 0.0 | 0.00 | 0.02 | 0.00 | 85 | 1009.2 |
| 20260509085005 | 39 | 39 | 0.0 | 0.9 | 0.00 | 0.02 | 0.00 | 85 | 1009.3 |
| 20260509084505 | 39 | 360 | 0.0 | 0.0 | 0.00 | 0.02 | 0.00 | 85 | 1009.4 |
| 20260509084005 | 39 | 360 | 0.0 | 0.0 | 0.00 | 0.02 | 0.00 | 85 | 1009.3 |
| 20260509083504 | 39 | 355 | 0.0 | 0.9 | 0.00 | 0.02 | 0.00 | 85 | 1009.4 |
| 20260509083005 | 38 | 355 | 0.0 | 0.9 | 0.00 | 0.02 | 0.00 | 86 | 1009.4 |
| 20260509082505 | 38 | 355 | 0.0 | 1.7 | 0.00 | 0.02 | 0.00 | 86 | 1009.5 |
| 20260509082005 | 38 | 5 | 0.0 | 0.9 | 0.00 | 0.02 | 0.00 | 86 | 1009.5 |
| 20260509081005 | 38 | 50 | 0.0 | 1.7 | 0.00 | 0.02 | 0.00 | 88 | 1009.6 |
| 20260509080504 | 38 | 5 | 0.0 | 0.9 | 0.00 | 0.02 | 0.00 | 88 | 1009.6 |
| 20260509080006 | 37 | 24 | 0.0 | 0.0 | 0.00 | 0.02 | 0.00 | 89 | 1009.7 |
| 20260509075004 | 38 | 24 | 0.0 | 0.0 | 0.00 | 0.02 | 0.00 | 88 | 1009.7 |
| 20260509074505 | 38 | 24 | 0.0 | 0.0 | 0.00 | 0.02 | 0.00 | 88 | 1009.7 |
| 20260509073504 | 38 | 24 | 0.0 | 0.0 | 0.00 | 0.02 | 0.00 | 88 | 1009.8 |
| 20260509073005 | 38 | 24 | 0.0 | 0.0 | 0.00 | 0.02 | 0.00 | 87 | 1009.8 |
| 20260509072504 | 38 | 24 | 0.0 | 0.0 | 0.00 | 0.02 | 0.00 | 87 | 1009.8 |
| 20260509071504 | 38 | 24 | 0.0 | 0.0 | 0.00 | 0.02 | 0.00 | 86 | 1009.8 |
| 20260509071005 | 38 | 24 | 0.0 | 0.0 | 0.00 | 0.02 | 0.00 | 86 | 1009.9 |
| 20260509070502 | 38 | 24 | 0.0 | 0.9 | 0.00 | 0.02 | 0.00 | 86 | 1009.8 |
| 20260509070006 | 38 | 34 | 0.0 | 0.9 | 0.00 | 0.02 | 0.00 | 87 | 1009.8 |
| 20260509065504 | 38 | 62 | 0.0 | 1.7 | 0.00 | 0.03 | 0.00 | 87 | 1009.9 |
| 20260509065004 | 38 | 62 | 0.0 | 1.7 | 0.00 | 0.03 | 0.00 | 87 | 1009.9 |
| 20260509064005 | 38 | 344 | 0.0 | 0.0 | 0.00 | 0.03 | 0.00 | 88 | 1010.0 |
| 20260509063505 | 38 | 344 | 0.0 | 0.0 | 0.00 | 0.03 | 0.00 | 89 | 1010.0 |
| 20260509063005 | 38 | 344 | 0.0 | 0.0 | 0.00 | 0.03 | 0.00 | 89 | 1010.2 |
| 20260509062504 | 38 | 344 | 0.0 | 0.9 | 0.00 | 0.03 | 0.00 | 89 | 1010.2 |
| 20260509061004 | 38 | 336 | 0.0 | 0.9 | 0.00 | 0.03 | 0.00 | 90 | 1010.3 |
| 20260509060506 | 38 | 250 | 0.0 | 0.0 | 0.00 | 0.03 | 0.00 | 89 | 1010.4 |
| 20260509060005 | 38 | 250 | 0.0 | 0.0 | 0.00 | 0.04 | 0.00 | 89 | 1010.5 |
| 20260509055504 | 39 | 250 | 0.0 | 0.0 | 0.00 | 0.04 | 0.00 | 88 | 1010.6 |
| 20260509055006 | 39 | 250 | 0.0 | 0.0 | 0.00 | 0.04 | 0.00 | 88 | 1010.6 |
| 20260509054505 | 39 | 250 | 0.0 | 0.0 | 0.00 | 0.04 | 0.00 | 88 | 1010.7 |
| 20260509053504 | 39 | 250 | 0.0 | 0.0 | 0.00 | 0.04 | 0.00 | 88 | 1010.9 |
| 20260509053005 | 39 | 250 | 0.0 | 0.0 | 0.00 | 0.04 | 0.00 | 88 | 1010.8 |
| 20260509052504 | 39 | 250 | 0.0 | 0.0 | 0.00 | 0.04 | 0.00 | 88 | 1010.9 |
| 20260509052005 | 39 | 250 | 0.0 | 0.0 | 0.00 | 0.04 | 0.00 | 87 | 1010.9 |
| 20260509051505 | 39 | 250 | 0.0 | 0.0 | 0.00 | 0.04 | 0.00 | 87 | 1010.9 |
| 20260509051006 | 39 | 250 | 0.0 | 0.0 | 0.00 | 0.04 | 0.00 | 86 | 1010.9 |
| 20260509050504 | 39 | 250 | 0.0 | 0.0 | 0.00 | 0.04 | 0.00 | 86 | 1011.0 |
| 20260509050006 | 40 | 250 | 0.0 | 0.0 | 0.00 | 0.04 | 0.00 | 87 | 1011.1 |
| 20260509045505 | 40 | 250 | 0.0 | 0.0 | 0.00 | 0.04 | 0.00 | 86 | 1011.2 |
| 20260509045005 | 40 | 250 | 0.0 | 0.0 | 0.00 | 0.04 | 0.00 | 86 | 1011.2 |
| 20260509044505 | 40 | 250 | 0.0 | 0.0 | 0.00 | 0.04 | 0.00 | 86 | 1011.3 |
| 20260509044005 | 40 | 250 | 0.0 | 0.0 | 0.00 | 0.04 | 0.00 | 86 | 1011.3 |
| 20260509043504 | 40 | 250 | 0.0 | 0.0 | 0.00 | 0.04 | 0.00 | 86 | 1011.3 |
| 20260509043006 | 39 | 250 | 0.0 | 0.0 | 0.00 | 0.04 | 0.00 | 85 | 1011.4 |
| 20260509042506 | 39 | 250 | 0.0 | 0.0 | 0.00 | 0.04 | 0.00 | 85 | 1011.3 |
| 20260509042004 | 39 | 250 | 0.0 | 0.0 | 0.00 | 0.04 | 0.00 | 84 | 1011.2 |
| 20260509041507 | 39 | 250 | 0.0 | 0.0 | 0.00 | 0.04 | 0.00 | 84 | 1011.3 |
| 20260509041007 | 40 | 250 | 0.0 | 0.0 | 0.00 | 0.04 | 0.00 | 84 | 1011.3 |
| 20260509040506 | 40 | 250 | 0.0 | 0.0 | 0.00 | 0.04 | 0.00 | 83 | 1011.2 |
| 20260509040006 | 40 | 250 | 0.0 | 0.0 | 0.00 | 0.04 | 0.04 | 82 | 1011.2 |
| 20260509035006 | 40 | 250 | 0.0 | 0.0 | 0.00 | 0.04 | 0.04 | 82 | 1011.2 |
| 20260509034006 | 40 | 250 | 0.0 | 0.0 | 0.00 | 0.04 | 0.04 | 80 | 1011.2 |
| 20260509033505 | 40 | 250 | 0.0 | 0.0 | 0.00 | 0.04 | 0.04 | 79 | 1011.2 |
| 20260509033005 | 40 | 250 | 0.0 | 0.0 | 0.00 | 0.04 | 0.04 | 79 | 1011.3 |
| 20260509032505 | 40 | 250 | 0.0 | 0.0 | 0.00 | 0.04 | 0.04 | 79 | 1011.2 |
| 20260509031505 | 40 | 250 | 0.0 | 0.0 | 0.00 | 0.04 | 0.04 | 79 | 1011.2 |
| 20260509031005 | 40 | 250 | 0.0 | 0.0 | 0.00 | 0.04 | 0.04 | 78 | 1011.3 |
| 20260509030505 | 41 | 250 | 0.0 | 0.0 | 0.00 | 0.04 | 0.04 | 78 | 1011.3 |
| 20260509030006 | 41 | 250 | 0.0 | 0.0 | 0.00 | 0.04 | 0.04 | 77 | 1011.4 |
| 20260509025506 | 41 | 250 | 0.0 | 0.0 | 0.00 | 0.04 | 0.04 | 77 | 1011.4 |
| 20260509025005 | 41 | 250 | 0.0 | 0.0 | 0.00 | 0.04 | 0.04 | 76 | 1011.4 |
| 20260509024506 | 41 | 250 | 0.0 | 0.0 | 0.00 | 0.04 | 0.04 | 75 | 1011.5 |
| 20260509024005 | 42 | 250 | 0.0 | 0.0 | 0.00 | 0.04 | 0.04 | 75 | 1011.5 |
| 20260509023506 | 42 | 250 | 0.0 | 0.0 | 0.00 | 0.04 | 0.04 | 75 | 1011.4 |
| 20260509022506 | 42 | 250 | 0.0 | 0.0 | 0.00 | 0.04 | 0.04 | 72 | 1011.4 |
| 20260509022005 | 42 | 250 | 0.0 | 0.0 | 0.00 | 0.04 | 0.04 | 71 | 1011.5 |
| 20260509021506 | 42 | 250 | 0.0 | 0.0 | 0.00 | 0.04 | 0.04 | 70 | 1011.5 |
| 20260509021005 | 43 | 250 | 0.0 | 0.0 | 0.00 | 0.04 | 0.04 | 70 | 1011.5 |
| 20260509020006 | 43 | 254 | 0.0 | 0.0 | 0.00 | 0.04 | 0.04 | 70 | 1011.6 |
| 20260509015505 | 43 | 254 | 0.0 | 0.0 | 0.00 | 0.04 | 0.04 | 70 | 1011.5 |
| 20260509015005 | 43 | 254 | 0.0 | 0.0 | 0.00 | 0.04 | 0.04 | 71 | 1011.5 |
| 20260509014005 | 44 | 254 | 0.0 | 0.0 | 0.00 | 0.04 | 0.04 | 71 | 1011.4 |
| 20260509013505 | 44 | 254 | 0.0 | 0.0 | 0.00 | 0.04 | 0.04 | 70 | 1011.3 |
| 20260509013005 | 44 | 254 | 0.0 | 0.0 | 0.00 | 0.04 | 0.04 | 69 | 1011.3 |
| 20260509012505 | 44 | 254 | 0.0 | 0.0 | 0.00 | 0.04 | 0.04 | 68 | 1011.3 |
| 20260509012005 | 45 | 254 | 0.0 | 0.0 | 0.00 | 0.04 | 0.04 | 68 | 1011.2 |
| 20260509011505 | 45 | 254 | 0.0 | 0.0 | 0.00 | 0.04 | 0.04 | 66 | 1011.1 |
| 20260509011005 | 45 | 254 | 0.0 | 0.0 | 0.00 | 0.04 | 0.04 | 64 | 1011.0 |
| 20260509010504 | 46 | 254 | 0.0 | 0.0 | 0.00 | 0.04 | 0.04 | 63 | 1010.9 |
| 20260509005505 | 46 | 254 | 0.0 | 0.0 | 0.00 | 0.04 | 0.04 | 63 | 1010.8 |
| 20260509005005 | 47 | 254 | 0.0 | 0.0 | 0.00 | 0.04 | 0.04 | 62 | 1010.7 |
| 20260509004505 | 47 | 254 | 0.0 | 0.0 | 0.00 | 0.04 | 0.04 | 62 | 1010.6 |
| 20260509003505 | 48 | 254 | 0.0 | 0.0 | 0.00 | 0.04 | 0.04 | 61 | 1010.5 |
| 20260509003006 | 48 | 254 | 0.0 | 0.0 | 0.00 | 0.04 | 0.04 | 59 | 1010.6 |
| 20260509002505 | 49 | 254 | 0.0 | 0.0 | 0.00 | 0.04 | 0.04 | 58 | 1010.5 |
| 20260509002005 | 49 | 254 | 0.0 | 0.0 | 0.00 | 0.04 | 0.04 | 57 | 1010.4 |
| 20260509001506 | 50 | 254 | 0.0 | 0.0 | 0.00 | 0.04 | 0.04 | 57 | 1010.3 |
| 20260509001005 | 50 | 254 | 0.0 | 0.0 | 0.00 | 0.04 | 0.04 | 56 | 1010.3 |
| 20260509000005 | 51 | 254 | 0.0 | 0.0 | 0.00 | 0.04 | 0.04 | 53 | 1010.3 |
| 20260508235505 | 52 | 254 | 0.0 | 0.0 | 0.00 | 0.04 | 0.04 | 52 | 1010.2 |
| 20260508235006 | 52 | 254 | 0.0 | 0.0 | 0.00 | 0.04 | 0.04 | 51 | 1010.2 |
| 20260508234506 | 53 | 254 | 0.0 | 0.0 | 0.00 | 0.04 | 0.04 | 48 | 1010.2 |
| 20260508234004 | 53 | 254 | 0.0 | 0.0 | 0.00 | 0.04 | 0.04 | 46 | 1010.2 |
| 20260508233505 | 53 | 254 | 0.0 | 0.0 | 0.00 | 0.04 | 0.04 | 46 | 1010.2 |
| 20260508233005 | 54 | 254 | 0.0 | 0.0 | 0.00 | 0.04 | 0.04 | 45 | 1010.2 |
| 20260508232503 | 54 | 254 | 0.0 | 0.0 | 0.00 | 0.04 | 0.04 | 44 | 1010.2 |
| 20260508232004 | 54 | 254 | 0.0 | 0.0 | 0.00 | 0.04 | 0.04 | 44 | 1010.2 |
| 20260508231505 | 55 | 254 | 0.0 | 1.7 | 0.00 | 0.04 | 0.04 | 43 | 1010.2 |
| 20260508231005 | 55 | 254 | 0.0 | 1.7 | 0.00 | 0.04 | 0.04 | 43 | 1010.2 |
| 20260508230505 | 56 | 196 | 0.0 | 0.9 | 0.00 | 0.04 | 0.04 | 41 | 1010.1 |
| 20260508230006 | 56 | 196 | 0.0 | 1.7 | 0.00 | 0.04 | 0.04 | 40 | 1010.1 |
| 20260508225504 | 57 | 254 | 0.9 | 2.6 | 0.00 | 0.04 | 0.04 | 41 | 1010.1 |
| 20260508225004 | 57 | 262 | 0.9 | 3.5 | 0.00 | 0.04 | 0.04 | 38 | 1010.1 |
| 20260508223506 | 57 | 254 | 0.0 | 1.7 | 0.00 | 0.04 | 0.04 | 42 | 1010.2 |
| 20260508223005 | 56 | 163 | 0.0 | 1.7 | 0.00 | 0.04 | 0.04 | 40 | 1010.3 |
| 20260508222505 | 57 | 163 | 0.9 | 3.5 | 0.00 | 0.04 | 0.04 | 41 | 1010.2 |
| 20260508221505 | 57 | 99 | 0.9 | 1.7 | 0.00 | 0.04 | 0.04 | 39 | 1010.3 |
| 20260508221005 | 57 | 188 | 0.9 | 5.2 | 0.00 | 0.04 | 0.04 | 38 | 1010.3 |
| 20260508220005 | 57 | 74 | 0.9 | 3.5 | 0.00 | 0.04 | 0.04 | 41 | 1010.4 |
| 20260508215505 | 57 | 113 | 1.7 | 6.1 | 0.00 | 0.04 | 0.04 | 40 | 1010.5 |
| 20260508215005 | 57 | 248 | 0.9 | 2.6 | 0.00 | 0.04 | 0.04 | 40 | 1010.5 |
| 20260508213504 | 56 | 187 | 0.9 | 3.5 | 0.00 | 0.04 | 0.04 | 39 | 1010.5 |
| 20260508213007 | 56 | 247 | 0.9 | 4.3 | 0.00 | 0.04 | 0.04 | 42 | 1010.5 |
| 20260508212505 | 56 | 327 | 0.9 | 4.3 | 0.00 | 0.04 | 0.04 | 45 | 1010.5 |
| 20260508212006 | 55 | 265 | 0.9 | 2.6 | 0.00 | 0.04 | 0.04 | 45 | 1010.5 |
| 20260508211505 | 54 | 306 | 0.9 | 4.3 | 0.00 | 0.04 | 0.04 | 45 | 1010.5 |
| 20260508210504 | 53 | 254 | 0.0 | 1.7 | 0.00 | 0.04 | 0.04 | 50 | 1010.6 |
| 20260508210005 | 53 | 318 | 0.0 | 1.7 | 0.00 | 0.04 | 0.04 | 51 | 1010.6 |
| 20260508205505 | 53 | 109 | 0.9 | 6.1 | 0.00 | 0.04 | 0.04 | 51 | 1010.6 |
| 20260508205006 | 53 | 109 | 0.9 | 6.1 | 0.00 | 0.04 | 0.04 | 50 | 1010.7 |
| 20260508203505 | 54 | 184 | 1.7 | 4.3 | 0.00 | 0.04 | 0.04 | 51 | 1010.7 |
| 20260508203007 | 56 | 154 | 1.7 | 3.5 | 0.00 | 0.04 | 0.04 | 48 | 1010.7 |
| 20260508202506 | 56 | 279 | 1.7 | 4.3 | 0.00 | 0.04 | 0.04 | 48 | 1010.7 |
| 20260508202005 | 56 | 245 | 1.7 | 4.3 | 0.00 | 0.04 | 0.04 | 49 | 1010.8 |
| 20260508201506 | 55 | 142 | 1.7 | 6.1 | 0.00 | 0.04 | 0.04 | 55 | 1010.7 |
| 20260508201005 | 55 | 285 | 1.7 | 6.1 | 0.00 | 0.04 | 0.04 | 55 | 1010.9 |
| 20260508200506 | 53 | 161 | 0.9 | 5.2 | 0.00 | 0.04 | 0.04 | 57 | 1010.9 |
| 20260508200005 | 53 | 194 | 0.9 | 5.2 | 0.00 | 0.04 | 0.04 | 52 | 1011.0 |
| 20260508195505 | 53 | 309 | 1.7 | 5.2 | 0.00 | 0.04 | 0.04 | 55 | 1011.1 |
| 20260508195005 | 53 | 94 | 1.7 | 5.2 | 0.00 | 0.04 | 0.04 | 52 | 1011.2 |
| 20260508194006 | 54 | 236 | 0.9 | 4.3 | 0.00 | 0.04 | 0.04 | 52 | 1011.3 |
| 20260508193504 | 55 | 145 | 1.7 | 4.3 | 0.00 | 0.04 | 0.04 | 52 | 1011.3 |
| 20260508193006 | 55 | 198 | 1.7 | 6.1 | 0.00 | 0.04 | 0.04 | 54 | 1011.2 |
| 20260508192505 | 55 | 250 | 1.7 | 3.5 | 0.00 | 0.04 | 0.04 | 51 | 1011.2 |
| 20260508192004 | 55 | 202 | 0.9 | 3.5 | 0.00 | 0.04 | 0.04 | 53 | 1011.3 |
| 20260508191505 | 54 | 150 | 1.7 | 6.1 | 0.00 | 0.04 | 0.04 | 53 | 1011.3 |
| 20260508191004 | 53 | 180 | 1.7 | 6.1 | 0.00 | 0.04 | 0.04 | 58 | 1011.4 |
| 20260508190505 | 53 | 319 | 1.7 | 6.1 | 0.00 | 0.04 | 0.04 | 58 | 1011.3 |
| 20260508190005 | 53 | 265 | 1.7 | 5.2 | 0.00 | 0.04 | 0.04 | 58 | 1011.5 |
| 20260508185505 | 53 | 160 | 1.7 | 6.1 | 0.00 | 0.04 | 0.04 | 57 | 1011.5 |
| 20260508185007 | 52 | 266 | 2.6 | 6.1 | 0.00 | 0.04 | 0.04 | 60 | 1011.6 |
| 20260508184505 | 52 | 149 | 1.7 | 5.2 | 0.00 | 0.04 | 0.04 | 59 | 1011.6 |
| 20260508184004 | 52 | 324 | 1.7 | 4.3 | 0.00 | 0.04 | 0.04 | 61 | 1011.6 |
| 20260508183504 | 52 | 236 | 1.7 | 6.1 | 0.00 | 0.04 | 0.04 | 65 | 1011.7 |
| 20260508183007 | 51 | 218 | 1.7 | 6.1 | 0.00 | 0.04 | 0.04 | 64 | 1011.7 |
| 20260508182506 | 51 | 267 | 1.7 | 6.1 | 0.00 | 0.04 | 0.04 | 64 | 1011.8 |
| 20260508182005 | 51 | 155 | 2.6 | 6.1 | 0.00 | 0.04 | 0.04 | 63 | 1011.8 |
| 20260508181506 | 51 | 142 | 1.7 | 6.1 | 0.00 | 0.04 | 0.04 | 66 | 1011.9 |
| 20260508181004 | 50 | 196 | 1.7 | 4.3 | 0.00 | 0.04 | 0.04 | 64 | 1012.1 |
| 20260508180504 | 50 | 155 | 1.7 | 4.3 | 0.00 | 0.04 | 0.04 | 70 | 1012.0 |
| 20260508175505 | 49 | 206 | 1.7 | 5.2 | 0.00 | 0.04 | 0.04 | 71 | 1011.9 |
| 20260508175004 | 48 | 174 | 1.7 | 4.3 | 0.00 | 0.04 | 0.04 | 71 | 1012.0 |
| 20260508174505 | 48 | 288 | 0.9 | 5.2 | 0.00 | 0.04 | 0.04 | 78 | 1012.0 |
| 20260508174005 | 47 | 252 | 1.7 | 4.3 | 0.00 | 0.04 | 0.04 | 76 | 1012.2 |
| 20260508173504 | 47 | 180 | 0.9 | 2.6 | 0.00 | 0.04 | 0.04 | 73 | 1012.2 |
| 20260508173006 | 47 | 267 | 1.7 | 3.5 | 0.00 | 0.04 | 0.04 | 72 | 1012.3 |
| 20260508172505 | 48 | 267 | 1.7 | 5.2 | 0.00 | 0.04 | 0.04 | 73 | 1012.2 |
| 20260508172005 | 48 | 252 | 1.7 | 4.3 | 0.00 | 0.04 | 0.04 | 69 | 1012.3 |
| 20260508170504 | 48 | 275 | 1.7 | 4.3 | 0.00 | 0.04 | 0.04 | 70 | 1012.2 |
| 20260508170005 | 48 | 162 | 1.7 | 4.3 | 0.00 | 0.04 | 0.04 | 68 | 1012.1 |
| 20260508165505 | 49 | 197 | 1.7 | 4.3 | 0.00 | 0.04 | 0.04 | 68 | 1012.2 |
| 20260508165005 | 49 | 195 | 1.7 | 4.3 | 0.00 | 0.04 | 0.04 | 65 | 1012.3 |
| 20260508164506 | 49 | 131 | 0.9 | 3.5 | 0.00 | 0.04 | 0.04 | 66 | 1012.2 |
| 20260508164004 | 49 | 225 | 0.9 | 3.5 | 0.00 | 0.04 | 0.04 | 69 | 1012.2 |
| 20260508163005 | 48 | 181 | 0.0 | 1.7 | 0.00 | 0.04 | 0.04 | 72 | 1012.1 |
| 20260508162506 | 48 | 292 | 0.0 | 1.7 | 0.00 | 0.04 | 0.04 | 72 | 1012.3 |
| 20260508162005 | 48 | 172 | 0.9 | 2.6 | 0.00 | 0.04 | 0.04 | 78 | 1012.3 |
| 20260508161505 | 47 | 157 | 0.9 | 6.1 | 0.00 | 0.04 | 0.04 | 75 | 1012.3 |
| 20260508161004 | 47 | 279 | 0.9 | 6.1 | 0.00 | 0.04 | 0.04 | 76 | 1012.3 |
| 20260508160505 | 47 | 207 | 1.7 | 3.5 | 0.00 | 0.04 | 0.04 | 80 | 1012.4 |
| 20260508160005 | 46 | 260 | 0.9 | 3.5 | 0.00 | 0.04 | 0.04 | 78 | 1012.4 |
| 20260508155505 | 46 | 150 | 0.9 | 3.5 | 0.01 | 0.04 | 0.04 | 80 | 1012.4 |
| 20260508155005 | 45 | 161 | 0.9 | 3.5 | 0.01 | 0.04 | 0.04 | 82 | 1012.4 |
| 20260508154505 | 45 | 284 | 0.9 | 3.5 | 0.01 | 0.04 | 0.04 | 84 | 1012.3 |
| 20260508154004 | 44 | 137 | 0.0 | 3.5 | 0.01 | 0.04 | 0.04 | 86 | 1012.4 |
| 20260508153505 | 43 | 175 | 0.9 | 3.5 | 0.01 | 0.04 | 0.04 | 87 | 1012.5 |
| 20260508153006 | 43 | 240 | 0.9 | 3.5 | 0.01 | 0.04 | 0.04 | 87 | 1012.5 |
| 20260508152505 | 43 | 187 | 0.0 | 2.6 | 0.01 | 0.04 | 0.04 | 89 | 1012.5 |
| 20260508151005 | 42 | 261 | 0.9 | 2.6 | 0.01 | 0.04 | 0.04 | 89 | 1012.6 |
| 20260508150505 | 42 | 349 | 0.9 | 2.6 | 0.01 | 0.04 | 0.04 | 87 | 1012.5 |
| 20260508145504 | 43 | 253 | 0.9 | 4.3 | 0.00 | 0.03 | 0.03 | 87 | 1012.5 |
| 20260508145005 | 43 | 205 | 0.9 | 3.5 | 0.00 | 0.03 | 0.03 | 87 | 1012.6 |
| 20260508144007 | 43 | 172 | 1.7 | 5.2 | 0.00 | 0.03 | 0.03 | 85 | 1012.4 |
| 20260508143506 | 43 | 199 | 0.9 | 4.3 | 0.00 | 0.03 | 0.03 | 85 | 1012.3 |
| 20260508142505 | 44 | 153 | 1.7 | 4.3 | 0.00 | 0.03 | 0.03 | 85 | 1012.5 |
| 20260508142005 | 44 | 267 | 0.9 | 3.5 | 0.01 | 0.03 | 0.03 | 87 | 1012.5 |
| 20260508141506 | 44 | 146 | 0.9 | 3.5 | 0.01 | 0.03 | 0.03 | 87 | 1012.3 |
| 20260508141005 | 44 | 167 | 0.9 | 2.6 | 0.01 | 0.03 | 0.03 | 88 | 1012.3 |
| 20260508140505 | 44 | 252 | 0.9 | 4.3 | 0.01 | 0.03 | 0.03 | 88 | 1012.3 |
| 20260508140006 | 44 | 248 | 0.9 | 3.5 | 0.01 | 0.03 | 0.03 | 88 | 1012.2 |
| 20260508135504 | 44 | 171 | 0.0 | 1.7 | 0.01 | 0.03 | 0.03 | 89 | 1012.2 |